Location: Unspecified
(0.0000°N, 0.0000°E)
Time: 23:40:21
(UTC+00:00)

STARLINK-31363 - Pass Details

Date: 03 May 2025
Orbit: 482 x 484 km, 43.0° (Epoch: 16 May)

Event Time Altitude Azimuth Distance (km) Brightness Sun altitude
Rises 19:59:02 0° 238° (WSW) 2,530 7.5 -29.3°
Reaches altitude 10° 20:01:19 10° 246° (WSW) 1,649 6.6 -29.8°
Enters shadow 20:02:28 18° 255° (WSW) 1,243 6.0 -30.1°
